FW8740 Weather Reports


Display with metric or nautical units.
time (UTC)temp
F
wind
direction
speed
MPH
gust
MPH
rain 1hr
in
rain 24hr
in
rain mn
in
humidity
%
barometer
mb
20260506131742 62 203 3.0 5.0 0.00 0.00 0.00 86 1012.7
20260506131238 62 184 2.0 5.0 0.00 0.00 0.00 87 1012.6
20260506130734 61 261 2.0 2.0 0.00 0.00 0.00 87 1012.6
20260506130231 61 165 2.0 2.0 0.00 0.00 0.00 87 1012.4
20260506125730 61 226 2.0 2.0 0.00 0.00 0.00 87 1012.5
20260506125227 61 221 2.0 2.0 0.00 0.00 0.00 87 1012.4
20260506124725 61 176 1.0 2.0 0.00 0.00 0.00 87 1012.4
20260506124223 61 114 0.0 2.0 0.00 0.00 0.00 88 1012.5
20260506123720 61 118 0.0 2.0 0.00 0.00 0.00 88 1012.4
20260506123219 61 129 1.0 2.0 0.00 0.00 0.00 88 1012.7
20260506122715 61 138 1.0 1.0 0.00 0.00 0.00 88 1012.6
20260506122213 61 145 1.0 2.0 0.00 0.00 0.00 89 1012.6
20260506121710 60 144 1.0 2.0 0.00 0.00 0.00 89 1012.9
20260506121207 60 114 0.0 2.0 0.00 0.00 0.00 89 1013.0
20260506120704 60 128 2.0 3.0 0.00 0.00 0.00 89 1013.0
20260506120202 59 101 1.0 2.0 0.00 0.00 0.00 90 1013.0
20260506115700 59 203 2.0 3.0 0.00 0.00 0.00 90 1012.9
20260506115158 59 201 2.0 3.0 0.00 0.00 0.00 90 1012.8
20260506114655 58 149 1.0 3.0 0.00 0.00 0.00 90 1012.9
20260506114152 58 137 2.0 2.0 0.00 0.00 0.00 90 1013.0
20260506113651 58 63 0.0 2.0 0.00 0.00 0.00 90 1013.2
20260506113148 57 132 1.0 5.0 0.00 0.00 0.00 90 1013.2
20260506112644 57 224 2.0 5.0 0.00 0.00 0.00 90 1013.0
20260506112142 57 118 0.0 2.0 0.00 0.00 0.00 91 1013.0
20260506111639 57 151 1.0 3.0 0.00 0.00 0.00 91 1012.9
20260506111137 57 136 1.0 2.0 0.00 0.00 0.00 91 1012.9
20260506110634 56 208 3.0 5.0 0.00 0.00 0.00 91 1013.1
20260506110131 56 178 1.0 3.0 0.00 0.00 0.00 91 1013.3
20260506105627 56 133 1.0 2.0 0.00 0.00 0.00 91 1013.2
20260506105125 56 135 1.0 6.0 0.00 0.00 0.00 91 1012.8
20260506104623 56 146 1.0 3.0 0.00 0.00 0.00 91 1012.7
20260506104120 56 128 1.0 2.0 0.00 0.00 0.00 91 1012.9
20260506103617 56 162 1.0 5.0 0.00 0.00 0.00 91 1013.0
20260506103114 55 148 1.0 3.0 0.00 0.00 0.00 91 1012.8
20260506102612 56 226 2.0 3.0 0.00 0.00 0.00 91 1012.9
20260506102109 55 145 1.0 3.0 0.00 0.00 0.00 91 1012.7
20260506101606 55 140 1.0 2.0 0.00 0.00 0.00 91 1012.9
20260506101103 55 134 1.0 3.0 0.00 0.00 0.00 91 1012.8
20260506100601 55 138 1.0 3.0 0.00 0.00 0.00 91 1012.5
20260506100059 55 162 1.0 3.0 0.00 0.00 0.00 91 1012.8
20260506095557 55 187 1.0 2.0 0.00 0.00 0.00 91 1012.7
20260506095053 55 126 0.0 2.0 0.00 0.00 0.00 91 1012.8
20260506094551 55 180 2.0 2.0 0.00 0.00 0.00 91 1012.8
20260506094049 55 135 1.0 2.0 0.00 0.00 0.00 91 1012.8
20260506093547 55 155 1.0 2.0 0.00 0.00 0.00 91 1012.7
20260506093044 55 158 0.0 3.0 0.00 0.00 0.00 90 1012.8
20260506092542 55 136 0.0 1.0 0.00 0.00 0.00 90 1013.0
20260506092038 55 173 1.0 2.0 0.00 0.00 0.00 90 1012.7
20260506091537 55 133 1.0 2.0 0.00 0.00 0.00 90 1012.9
20260506091034 54 134 0.0 1.0 0.00 0.00 0.00 90 1012.8
20260506090532 54 125 1.0 2.0 0.00 0.00 0.00 90 1012.7
20260506090028 54 140 1.0 2.0 0.00 0.00 0.00 90 1012.8
20260506085525 54 149 2.0 2.0 0.00 0.00 0.00 90 1012.8
20260506085021 54 126 0.0 1.0 0.00 0.00 0.00 90 1013.1
20260506084518 54 151 1.0 2.0 0.00 0.00 0.00 90 1013.3
20260506084014 54 121 0.0 1.0 0.00 0.00 0.00 90 1013.0
20260506083512 54 121 0.0 0.0 0.00 0.00 0.00 89 1012.9
20260506083009 54 119 0.0 0.0 0.00 0.00 0.00 89 1012.9
20260506082506 54 123 0.0 0.0 0.00 0.00 0.00 89 1013.1
20260506082001 54 114 0.0 0.0 0.00 0.00 0.00 89 1013.1
20260506081500 54 125 0.0 0.0 0.00 0.00 0.00 89 1013.1
20260506080957 54 126 0.0 1.0 0.00 0.00 0.00 89 1013.0
20260506080454 54 122 0.0 0.0 0.00 0.00 0.00 89 1013.3
20260506073438 55 125 0.0 1.0 0.00 0.00 0.00 88 1013.2
20260506072935 55 122 0.0 1.0 0.00 0.00 0.00 88 1013.1
20260506072432 55 116 0.0 1.0 0.00 0.00 0.00 88 1013.2
20260506071930 55 115 1.0 2.0 0.00 0.00 0.00 88 1013.2
20260506071427 55 143 0.0 1.0 0.00 0.00 0.00 88 1013.4
20260506070924 55 128 0.0 1.0 0.00 0.00 0.00 88 1013.4
20260506070421 55 126 1.0 1.0 0.00 0.00 0.00 88 1013.3
20260506062359 56 178 1.0 2.0 0.00 0.00 0.00 87 1013.3
20260506061854 56 126 1.0 2.0 0.00 0.00 0.00 87 1013.3
20260506061351 56 134 1.0 2.0 0.00 0.00 0.00 87 1013.1
20260506060849 56 140 1.0 2.0 0.00 0.00 0.00 86 1013.2
20260506060347 57 128 1.0 2.0 0.00 0.00 0.00 86 1013.3
20260506051319 58 135 1.0 2.0 0.00 0.00 0.00 84 1013.7
20260506050816 58 128 1.0 2.0 0.00 0.00 0.00 83 1013.8
20260506050314 58 144 0.0 1.0 0.00 0.00 0.00 83 1013.8
20260506044804 58 131 1.0 2.0 0.00 0.00 0.00 81 1013.7
20260506044301 59 128 1.0 2.0 0.00 0.00 0.00 81 1014.0
20260506043759 59 134 1.0 1.0 0.00 0.00 0.00 81 1013.9
20260506043256 59 122 0.0 2.0 0.00 0.00 0.00 80 1013.7
20260506042755 59 126 0.0 1.0 0.00 0.00 0.00 80 1013.9
20260506042253 59 134 1.0 1.0 0.00 0.00 0.00 79 1013.7
20260506041751 59 139 1.0 1.0 0.00 0.00 0.00 79 1013.7
20260506041248 60 145 1.0 2.0 0.00 0.00 0.00 79 1013.6
20260506040745 60 139 1.0 1.0 0.00 0.00 0.00 78 1013.6
20260506040242 60 139 1.0 2.0 0.00 0.00 0.00 78 1013.5
20260506035739 60 138 1.0 1.0 0.00 0.00 0.00 77 1013.8
20260506035236 61 148 1.0 1.0 0.00 0.00 0.00 76 1013.7
20260506034733 61 131 1.0 2.0 0.00 0.00 0.00 76 1013.6
20260506034230 62 151 1.0 2.0 0.00 0.00 0.00 75 1013.7
20260506033727 62 127 1.0 2.0 0.00 0.00 0.00 75 1013.8
20260506033224 62 135 1.0 1.0 0.00 0.00 0.00 74 1013.6
20260506032721 62 139 1.0 2.0 0.00 0.00 0.00 74 1013.8
20260506032218 62 133 1.0 2.0 0.00 0.00 0.00 74 1013.4
20260506031714 63 134 1.0 2.0 0.00 0.00 0.00 73 1013.6
20260506031212 63 173 2.0 2.0 0.00 0.00 0.00 73 1013.5
20260506030710 63 222 2.0 2.0 0.00 0.00 0.00 73 1013.5
20260506030207 63 122 1.0 1.0 0.00 0.00 0.00 72 1013.5
20260506025704 64 236 2.0 3.0 0.00 0.00 0.00 72 1013.7
20260506025200 64 158 1.0 2.0 0.00 0.00 0.00 72 1013.6
20260506024658 64 154 1.0 3.0 0.00 0.00 0.00 71 1013.5
20260506024154 64 159 2.0 3.0 0.00 0.00 0.00 71 1013.5
20260506023650 64 233 3.0 3.0 0.00 0.00 0.00 71 1013.5
20260506023148 64 210 2.0 3.0 0.00 0.00 0.00 71 1013.6
20260506022644 65 208 2.0 2.0 0.00 0.00 0.00 70 1013.8
20260506022142 65 148 2.0 2.0 0.00 0.00 0.00 70 1013.5
20260506021640 65 151 1.0 2.0 0.00 0.00 0.00 70 1013.5
20260506021136 65 136 2.0 3.0 0.00 0.00 0.00 70 1013.5
20260506020634 65 119 2.0 5.0 0.00 0.00 0.00 70 1013.5
20260506020131 65 221 3.0 5.0 0.00 0.00 0.00 70 1013.3
20260506015629 65 206 3.0 6.0 0.00 0.00 0.00 70 1013.4
20260506015126 65 209 4.0 5.0 0.00 0.00 0.00 70 1013.4
20260506014623 65 128 1.0 2.0 0.00 0.00 0.00 70 1013.2
20260506014118 65 223 2.0 5.0 0.00 0.00 0.00 70 1013.2
20260506013617 65 214 3.0 5.0 0.00 0.00 0.00 70 1012.9
20260506013113 65 196 3.0 3.0 0.00 0.00 0.00 70 1013.0
20260506012610 65 246 4.0 7.0 0.00 0.00 0.00 70 1012.9
20260506012106 65 246 4.0 7.0 0.00 0.00 0.00 70 1013.2
20260506011604 65 213 4.0 5.0 0.00 0.00 0.00 71 1012.9
20260506011100 64 221 2.0 6.0 0.00 0.00 0.00 71 1012.9
20260506010559 65 204 3.0 5.0 0.00 0.00 0.00 71 1013.0
20260506010056 65 160 3.0 3.0 0.00 0.00 0.00 71 1012.9
20260506005553 65 230 2.0 6.0 0.00 0.00 0.00 71 1012.7
20260506005049 65 226 2.0 5.0 0.00 0.00 0.00 71 1012.7
20260506004546 65 150 3.0 5.0 0.00 0.00 0.00 71 1012.6
20260506004043 64 191 3.0 6.0 0.00 0.00 0.00 71 1012.8
20260506003539 64 208 3.0 3.0 0.00 0.00 0.00 71 1012.4
20260506003036 64 251 4.0 6.0 0.00 0.00 0.00 71 1012.6
20260506002532 64 230 4.0 6.0 0.00 0.00 0.00 71 1012.5
20260506002028 64 228 5.0 6.0 0.00 0.00 0.00 71 1012.4
20260506001524 65 143 1.0 2.0 0.00 0.00 0.00 70 1012.3
20260506001022 65 144 1.0 2.0 0.00 0.00 0.00 70 1012.3
20260506000519 65 168 1.0 2.0 0.00 0.00 0.00 70 1012.5
20260506000016 65 132 1.0 2.0 0.00 0.00 0.00 70 1012.3
20260505235514 66 125 1.0 3.0 0.00 0.00 0.00 69 1012.1
20260505235010 66 132 2.0 2.0 0.00 0.00 0.00 69 1012.0
20260505234508 66 161 1.0 2.0 0.00 0.00 0.00 69 1012.2
20260505234004 66 140 1.0 3.0 0.00 0.00 0.00 68 1012.0
20260505233502 66 152 1.0 3.0 0.00 0.00 0.00 68 1011.8
20260505232959 67 234 2.0 3.0 0.00 0.00 0.00 68 1011.7
20260505232457 67 122 0.0 2.0 0.00 0.00 0.00 67 1011.6
20260505231954 67 172 1.0 5.0 0.00 0.00 0.00 66 1011.6
20260505231451 68 161 2.0 3.0 0.00 0.00 0.00 66 1011.7
20260505230950 68 109 1.0 5.0 0.00 0.00 0.00 66 1011.2
20260505230447 68 119 1.0 5.0 0.00 0.00 0.00 65 1011.4
20260505225943 68 219 2.0 5.0 0.00 0.00 0.00 65 1011.2
20260505225440 68 139 3.0 3.0 0.00 0.00 0.00 65 1011.2
20260505224936 69 161 2.0 3.0 0.00 0.00 0.00 65 1011.5
20260505224433 69 229 3.0 8.0 0.00 0.00 0.00 64 1011.2
20260505223930 69 240 2.0 5.0 0.00 0.00 0.00 64 1011.2
20260505223427 69 209 3.0 5.0 0.00 0.00 0.00 63 1011.0
20260505222924 69 206 2.0 3.0 0.00 0.00 0.00 62 1011.0
20260505222420 70 138 1.0 5.0 0.00 0.00 0.00 62 1011.1
20260505221916 70 225 3.0 3.0 0.00 0.00 0.00 62 1011.4
20260505221414 70 110 2.0 7.0 0.00 0.00 0.00 61 1011.3
20260505220910 71 149 1.0 6.0 0.00 0.00 0.00 61 1011.2
20260505220407 71 184 3.0 6.0 0.00 0.00 0.00 60 1011.2
20260505215905 71 141 2.0 3.0 0.00 0.00 0.00 60 1011.0
20260505215403 72 166 0.0 2.0 0.00 0.00 0.00 60 1011.0
20260505214901 72 58 1.0 2.0 0.00 0.00 0.00 59 1010.8
20260505214358 72 110 1.0 2.0 0.00 0.00 0.00 59 1011.0
20260505213855 72 148 1.0 6.0 0.00 0.00 0.00 59 1011.1
20260505213353 72 249 3.0 6.0 0.00 0.00 0.00 59 1010.8
20260505212849 73 226 3.0 5.0 0.00 0.00 0.00 58 1010.7
20260505212346 73 168 2.0 5.0 0.00 0.00 0.00 57 1010.9
20260505211842 74 244 4.0 5.0 0.00 0.00 0.00 57 1010.7
20260505211340 73 134 3.0 7.0 0.00 0.00 0.00 57 1010.9
20260505210836 74 172 3.0 7.0 0.00 0.00 0.00 57 1010.8
20260505210333 73 167 3.0 8.0 0.00 0.00 0.00 57 1010.7
20260505205830 73 177 3.0 6.0 0.00 0.00 0.00 57 1010.7
20260505205328 74 268 3.0 5.0 0.00 0.00 0.00 57 1010.7
20260505204824 74 214 3.0 9.0 0.00 0.00 0.00 57 1010.8
20260505204322 74 196 6.0 10.0 0.00 0.00 0.00 56 1010.9
20260505203820 75 260 3.0 5.0 0.00 0.00 0.00 57 1010.9
20260505203316 74 132 1.0 3.0 0.00 0.00 0.00 57 1011.1
20260505202812 75 236 3.0 7.0 0.00 0.00 0.00 57 1010.7
20260505202309 75 120 2.0 5.0 0.00 0.00 0.00 57 1010.9
20260505201805 74 314 3.0 9.0 0.00 0.00 0.00 57 1010.8
20260505201303 75 178 3.0 5.0 0.00 0.00 0.00 57 1011.0
20260505200801 75 244 3.0 6.0 0.00 0.00 0.00 57 1010.9
20260505200258 75 237 2.0 11.0 0.00 0.00 0.00 57 1011.3
20260505195753 75 157 3.0 3.0 0.00 0.00 0.00 58 1011.3
20260505195251 75 273 5.0 8.0 0.00 0.00 0.00 57 1011.1
20260505194748 75 169 5.0 6.0 0.00 0.00 0.00 58 1011.6
20260505194244 75 252 5.0 8.0 0.00 0.00 0.00 57 1011.6
20260505193740 75 253 4.0 5.0 0.00 0.00 0.00 58 1011.8
20260505193238 75 179 5.0 7.0 0.00 0.00 0.00 57 1011.3
20260505192736 75 247 6.0 7.0 0.00 0.00 0.00 57 1011.8
20260505192233 75 186 3.0 8.0 0.00 0.00 0.00 57 1011.9
20260505191731 74 116 2.0 8.0 0.00 0.00 0.00 59 1011.7
20260505191230 75 243 5.0 8.0 0.00 0.00 0.00 57 1011.7
20260505190726 75 220 6.0 9.0 0.00 0.00 0.00 57 1011.8
20260505190225 75 275 5.0 6.0 0.00 0.00 0.00 56 1011.6
20260505185722 76 237 5.0 7.0 0.00 0.00 0.00 55 1012.0
20260505185219 76 203 7.0 9.0 0.00 0.00 0.00 55 1012.1
20260505184715 75 266 3.0 6.0 0.00 0.00 0.00 56 1012.1
20260505184212 76 233 4.0 7.0 0.00 0.00 0.00 54 1012.1
20260505183709 77 227 3.0 7.0 0.00 0.00 0.00 53 1012.1
20260505183207 76 209 4.0 10.0 0.00 0.00 0.00 53 1012.2
20260505182702 77 244 5.0 8.0 0.00 0.00 0.00 53 1012.1
20260505182200 77 235 4.0 8.0 0.00 0.00 0.00 52 1012.3
20260505181656 77 229 4.0 7.0 0.00 0.00 0.00 53 1012.0
20260505181154 77 210 3.0 9.0 0.00 0.00 0.00 52 1012.3
20260505180650 78 186 3.0 7.0 0.00 0.00 0.00 53 1012.3
20260505180147 79 213 7.0 9.0 0.00 0.00 0.00 50 1012.2
20260505175643 78 177 4.0 8.0 0.00 0.00 0.00 50 1012.2
20260505175139 79 139 1.0 6.0 0.00 0.00 0.00 49 1012.2
20260505174636 78 216 3.0 6.0 0.00 0.00 0.00 50 1012.2
20260505174132 79 219 3.0 3.0 0.00 0.00 0.00 50 1012.4
20260505173629 77 277 2.0 8.0 0.00 0.00 0.00 52 1012.6
20260505173126 78 159 4.0 8.0 0.00 0.00 0.00 51 1012.4
20260505172624 78 182 2.0 5.0 0.00 0.00 0.00 52 1012.5
20260505172120 78 243 4.0 5.0 0.00 0.00 0.00 52 1012.5
20260505171615 76 176 3.0 5.0 0.00 0.00 0.00 55 1012.5
20260505171112 77 156 4.0 5.0 0.00 0.00 0.00 53 1012.5
20260505170609 78 200 3.0 3.0 0.00 0.00 0.00 53 1012.7
20260505170105 77 209 2.0 5.0 0.00 0.00 0.00 54 1012.7
20260505165600 75 178 4.0 8.0 0.00 0.00 0.00 55 1012.8
20260505165056 76 204 6.0 9.0 0.00 0.00 0.00 54 1012.8
20260505164552 78 202 2.0 3.0 0.00 0.00 0.00 53 1012.7
20260505164050 78 75 4.0 6.0 0.00 0.00 0.00 53 1012.8
20260505163549 76 131 2.0 6.0 0.00 0.00 0.00 54 1012.9
20260505163045 77 114 1.0 7.0 0.00 0.00 0.00 52 1013.1
20260505162538 77 180 4.0 6.0 0.00 0.00 0.00 51 1013.2
20260505162035 78 8 2.0 3.0 0.00 0.00 0.00 51 1013.2
20260505161532 77 129 1.0 3.0 0.00 0.00 0.00 52 1013.2
20260505161029 76 260 3.0 8.0 0.00 0.00 0.00 52 1013.3
20260505160527 77 344 3.0 11.0 0.00 0.00 0.00 52 1013.4
20260505153003 75 328 3.0 9.0 0.00 0.00 0.00 53 1013.7
20260505152501 75 283 4.0 5.0 0.00 0.00 0.00 54 1013.8
20260505151956 74 187 3.0 3.0 0.00 0.00 0.00 55 1013.9
20260505151451 74 238 5.0 8.0 0.00 0.00 0.00 54 1013.7
20260505150949 74 274 2.0 5.0 0.00 0.00 0.00 55 1014.1
20260505150445 74 19 2.0 3.0 0.00 0.00 0.00 56 1014.1
20260505140416 70 116 1.0 3.0 0.00 0.00 0.00 65 1014.0